Theta_e
321 322 322 322 322 323 323 323 323 323 323 323 323 323 322 323 322 322 322 322 321 320 321 320 319 317 316 315 314 312 311 310 310 310 309 308 307 307 306 306 306 305
320 321 321 322 321 322 322 323 323 323 322 322 322 322 323 323 322 322 322 321 320 319 319 319 319 318 317 315 314 312 311 311 310 311 309 308 308 307 307 307 306 306
319 319 319 319 320 321 321 322 322 321 321 321 321 321 320 321 320 320 320 320 320 319 318 318 318 318 317 316 315 313 312 311 311 311 310 309 309 307 307 306 306 306
318 319 318 319 319 320 321 320 320 319 319 319 319 319 319 319 318 318 318 315 317 318 318 318 317 316 316 315 314 312 312 311 311 310 309 308 308 308 307 306 305 305
318 318 319 319 319 320 320 319 318 318 317 318 318 318 317 316 316 316 315 315 315 315 315 316 316 315 315 313 312 311 311 310 310 310 309 308 308 307 307 306 305 304
318 318 318 318 317 317 317 316 316 316 316 316 316 316 315 315 314 313 313 313 313 313 313 313 313 314 313 313 311 310 310 309 309 309 308 308 307 307 306 305 305 304
314 314 314 315 315 315 314 314 314 314 314 315 314 313 313 312 312 312 312 312 311 311 311 311 311 311 312 312 311 310 309 309 309 308 307 306 306 306 305 304 304 303
313 313 313 312 312 312 312 312 312 312 312 312 310 311 311 311 310 310 310 310 310 310 310 310 310 311 311 310 309 309 309 309 309 308 307 306 306 306 306 306 304 303
311 310 310 310 309 309 309 310 310 310 310 309 309 309 309 309 309 309 309 309 309 309 309 309 309 309 309 309 308 308 307 308 308 307 306 305 305 305 305 305 304 303
308 308 307 307 307 308 308 308 308 308 307 307 307 307 307 308 308 307 307 307 307 307 307 307 307 307 307 307 307 307 307 306 306 306 306 305 305 304 304 303 301 300
306 305 305 305 305 306 306 306 305 305 305 304 304 304 305 305 305 305 304 304 305 305 305 305 306 306 306 306 306 306 306 305 305 305 305 304 304 304 299 302 301 299
304 303 303 303 304 304 303 303 303 303 303 303 303 303 303 303 303 303 302 302 302 302 303 304 304 305 304 304 305 305 305 304 304 304 304 304 303 302 302 302 300 300
303 303 303 302 303 303 302 302 301 301 301 301 301 301 301 301 301 301 301 301 301 301 301 302 302 303 303 303 303 304 303 303 302 301 301 301 301 301 301 301 300 300
301 300 300 300 300 300 300 301 300 301 301 301 300 299 299 299 300 300 301 300 301 300 301 301 301 301 302 302 302 303 303 302 302 300 299 299 298 298 299 298 298 298
300 300 300 299 299 300 300 300 299 299 299 298 299 298 299 299 299 299 298 299 299 299 299 299 299 300 300 301 301 301 301 301 301 300 298 297 297 297 297 297 298 299
299 299 298 299 299 298 298 297 298 297 297 297 297 298 298 298 298 298 298 297 297 297 298 298 298 299 295 293 294 298 299 300 300 299 298 297 296 296 296 296 296 297
298 297 298 297 297 297 297 295 296 296 296 295 295 296 296 296 296 296 296 297 296 296 296 297 297 298 293 295 295 294 295 296 296 296 297 296 296 295 294 294 295 296
296 296 296 295 295 294 294 294 293 293 293 294 294 293 295 295 294 295 295 296 297 296 296 296 296 294 294 294 294 294 293 294 294 294 295 295 295 295 295 295 295 295
295 294 294 294 293 292 293 290 290 290 291 291 291 294 294 293 294 294 295 295 295 295 295 296 296 294 294 294 294 294 294 293 293 293 293 294 294 295 295 295 295 294
293 291 292 293 292 291 291 291 291 290 290 292 291 291 291 292 292 293 293 293 294 294 294 295 295 293 294 293 293 293 293 293 293 293 293 294 294 294 294 294 294 294
291 292 291 291 291 290 288 289 290 289 289 289 290 290 289 290 291 290 292 290 292 293 293 292 293 293 293 293 293 293 293 292 293 293 293 293 294 294 294 294 294 294
290 290 290 290 289 288 288 288 289 288 288 289 289 290 289 290 290 289 289 289 290 290 291 291 292 292 292 292 292 292 293 292 292 292 292 292 293 293 294 294 294 294
289 289 288 287 288 287 286 287 287 287 288 288 288 288 288 289 288 289 289 289 289 289 289 290 290 291 291 291 291 292 291 289 291 290 290 291 291 292 292 293 293 293
288 288 286 286 286 286 286 286 287 287 287 288 288 288 288 288 288 289 289 289 288 288 289 288 288 289 290 290 290 291 290 288 289 288 288 289 290 291 291 292 292 288
287 287 286 285 285 285 286 285 286 286 287 287 288 287 287 288 288 288 288 288 288 288 287 287 287 287 289 289 290 290 289 288 288 288 287 288 288 289 290 291 291 289
286 285 285 285 284 285 285 285 286 286 286 286 286 286 287 288 288 288 287 287 287 287 287 287 288 288 288 289 289 289 290 288 287 287 286 287 288 288 288 288 289 289
Wind_Speed
8 7 7 7 7 7 7 7 7 7 6 6 6 6 7 7 7 8 8 8 8 8 8 8 6 7 6 6 8 7 8 8 8 6 10 10 8 12 12 10 11 12
9 8 7 6 6 6 7 6 6 6 6 6 6 6 6 5 6 5 6 8 7 8 8 8 7 6 6 5 6 7 7 7 8 7 8 10 8 9 13 13 13 11
9 9 9 8 7 7 7 6 5 5 5 6 6 6 5 5 5 7 6 6 7 7 8 8 7 6 6 5 4 5 6 7 8 7 8 10 8 9 10 11 11 12
10 9 9 10 8 7 7 6 6 5 5 6 6 5 5 4 5 6 5 5 6 7 7 8 8 8 6 5 5 5 5 5 6 5 7 7 8 8 9 7 10 10
9 8 8 7 7 7 6 6 6 5 5 5 5 5 5 5 5 6 5 5 6 6 6 7 8 8 5 4 4 5 6 6 6 6 7 7 6 6 7 7 9 11
6 6 6 6 5 5 5 5 5 5 6 5 5 4 4 5 5 5 5 5 5 5 5 5 6 7 6 6 5 6 6 6 6 6 7 7 6 6 5 7 9 11
5 4 5 4 4 4 5 5 5 5 5 4 3 4 3 4 4 4 5 5 5 5 5 6 6 7 6 6 6 7 7 7 6 6 7 7 7 8 7 8 9 11
5 4 4 4 4 4 5 4 3 3 3 2 3 3 3 4 5 4 4 5 5 6 6 6 7 7 6 5 6 7 8 6 6 7 7 8 8 9 9 8 8 9
4 4 4 3 3 3 3 3 2 2 2 3 3 3 3 4 3 3 4 5 5 5 6 6 6 6 5 5 6 7 8 7 6 7 8 8 8 9 8 6 7 9
1 1 1 1 1 2 2 2 2 2 2 2 3 2 3 3 3 3 4 5 5 5 6 6 6 5 5 5 7 7 8 8 8 7 7 8 9 8 8 8 9 9
1 2 2 1 1 2 2 2 2 2 2 3 2 3 3 2 3 2 4 5 5 6 6 7 7 6 6 7 7 7 7 7 7 8 8 9 9 9 8 9 9 10
2 1 0 2 2 2 2 2 2 2 2 2 2 2 2 2 2 2 4 5 6 6 6 7 7 6 7 8 8 7 7 7 8 8 9 9 8 9 9 9 9 10
2 1 1 0 0 1 0 1 1 1 1 1 1 1 2 2 2 3 3 4 5 6 6 7 7 8 8 8 8 9 8 8 8 8 9 9 9 9 9 9 10 10
3 2 2 2 1 1 1 0 0 0 0 0 0 1 1 2 2 3 3 3 4 5 5 6 6 7 7 8 8 8 7 7 7 8 8 9 9 10 10 10 10 10
3 3 2 2 1 0 1 1 1 1 1 1 1 1 1 2 2 2 2 3 3 4 4 4 6 6 5 5 6 7 7 8 8 8 8 8 9 9 10 10 11 11
4 3 2 1 2 2 3 3 3 3 2 1 1 1 1 1 1 2 2 3 4 4 4 4 5 5 5 7 7 6 7 6 7 7 7 8 9 9 9 9 10 10
4 4 3 4 4 4 4 4 4 4 3 3 3 2 2 2 2 3 3 3 4 4 5 4 5 5 6 7 8 9 9 9 8 9 9 9 9 9 10 10 10 10
4 4 4 4 5 5 4 4 4 3 4 4 4 4 3 2 3 4 4 4 4 5 5 5 5 6 9 9 9 9 8 8 8 9 8 8 9 9 9 9 10 10
5 5 4 4 5 4 3 3 2 2 2 2 2 3 3 3 4 4 4 4 4 6 6 6 6 7 9 10 10 10 10 10 8 9 9 9 9 9 9 9 9 9
5 4 5 4 4 4 4 3 2 2 2 3 2 2 3 3 3 5 5 5 5 5 6 6 7 6 8 9 9 10 10 10 8 9 9 10 10 10 9 9 9 9
4 4 4 4 4 3 2 2 1 2 2 2 2 2 3 3 3 3 4 3 5 5 6 7 7 9 9 9 9 10 10 9 8 9 8 9 9 9 10 10 9 9
4 4 4 4 4 3 3 3 2 2 3 3 2 3 3 3 3 3 4 5 4 5 7 8 8 8 8 8 9 9 10 7 7 8 8 9 9 9 9 8 8 8
4 4 4 3 3 3 3 3 3 3 3 2 3 3 3 4 4 4 4 4 5 5 7 9 9 8 9 8 8 9 7 5 6 6 7 9 9 8 8 8 8 8
4 5 3 3 3 4 4 3 3 3 3 2 3 4 4 4 4 4 4 4 5 5 7 7 9 9 11 11 10 10 8 6 5 6 7 8 9 8 7 7 8 10
5 4 4 4 5 5 5 6 5 4 3 3 3 3 5 4 4 4 4 4 4 6 8 8 9 9 10 11 11 10 7 4 5 6 8 8 7 9 7 7 8 8
4 4 5 5 6 6 5 5 4 4 4 5 5 4 5 4 4 4 6 7 6 6 7 6 8 8 6 10 11 9 8 5 4 6 8 9 8 8 8 7 7 8
Wind_Direction
204 202 206 211 219 221 221 221 228 234 235 239 245 246 242 238 218 215 221 227 232 237 237 231 218 216 220 215 216 218 220 220 220 209 221 218 218 223 228 222 220 227
202 205 207 211 214 217 224 234 238 239 242 246 251 254 259 259 251 228 222 237 227 237 243 243 233 218 218 218 216 220 228 225 225 219 222 213 212 216 230 230 233 236
198 203 207 210 215 216 219 216 225 234 236 240 244 245 253 257 256 246 237 235 243 229 234 241 247 235 216 212 215 222 230 234 236 229 230 235 231 229 236 231 237 236
200 201 204 210 215 218 216 215 214 216 225 233 229 226 226 233 233 235 228 221 234 243 244 238 237 242 232 219 223 231 233 238 240 236 239 241 237 240 242 231 234 237
196 199 202 203 208 213 212 213 214 215 215 225 231 225 219 219 226 235 233 227 225 233 235 242 244 243 233 217 229 248 237 236 231 228 233 240 236 231 239 231 232 240
193 198 201 203 202 203 207 208 214 215 219 222 227 226 226 227 234 234 234 231 232 234 238 240 243 241 235 220 214 233 240 239 231 223 236 242 245 237 235 233 238 243
190 194 202 205 208 209 213 216 215 217 219 224 225 231 232 234 234 242 246 243 238 239 238 241 242 245 242 239 233 236 239 239 236 225 227 235 236 241 233 228 234 238
193 187 194 197 202 211 224 229 224 224 225 219 235 243 237 240 246 245 244 247 247 248 245 241 245 248 245 237 246 246 246 240 242 234 234 236 231 238 234 229 221 229
175 178 175 192 201 221 225 222 219 224 212 221 237 250 240 242 250 253 252 249 252 256 256 253 252 253 255 258 251 248 251 253 242 237 245 249 249 251 256 256 245 247
143 130 134 173 212 242 240 223 217 225 216 221 238 248 250 249 236 257 274 272 265 263 264 268 265 268 261 254 257 256 253 253 255 251 245 246 248 248 244 242 245 248
59 44 21 5 281 269 247 247 241 244 227 230 235 237 248 261 269 266 268 269 267 260 258 257 259 259 259 256 254 253 256 257 254 251 247 245 243 244 242 240 243 244
63 55 310 268 264 264 248 238 231 228 217 219 215 239 238 258 251 249 249 252 256 262 262 260 259 257 254 254 254 255 249 245 248 251 253 251 249 247 245 241 243 246
111 121 87 129 235 284 345 255 229 227 218 218 213 224 242 246 237 240 238 246 256 259 260 261 260 258 257 256 257 257 256 252 245 246 252 255 255 254 252 248 248 249
81 67 64 52 14 319 275 300 292 143 143 46 189 249 242 250 258 260 265 256 255 257 264 265 260 257 255 255 257 257 258 256 255 248 249 251 254 255 253 253 250 249
61 55 49 46 14 353 10 24 21 25 21 1 337 295 277 268 266 271 272 272 270 267 264 263 264 260 257 255 254 257 259 264 266 265 257 254 254 254 252 252 253 251
55 51 44 36 33 29 26 17 14 15 5 353 331 297 294 294 292 288 278 276 278 272 266 263 261 260 254 262 269 272 278 280 278 271 265 260 260 262 259 254 254 254
47 36 33 40 28 28 23 16 12 5 353 347 341 342 328 326 300 287 278 269 265 266 264 255 253 255 256 250 246 247 255 267 272 274 273 271 266 264 266 266 263 259
36 31 35 33 29 21 16 12 1 353 353 348 340 330 317 306 291 274 275 273 267 265 262 256 252 239 241 247 248 246 241 256 268 271 271 266 265 261 263 264 266 265
26 27 27 26 22 9 3 2 358 344 330 323 307 299 298 282 272 274 267 265 262 266 267 263 263 242 235 239 242 244 245 245 257 259 262 264 265 265 264 264 264 265
18 20 17 14 8 7 360 353 352 336 338 306 290 276 267 268 266 260 259 255 255 263 271 274 271 261 241 241 244 244 246 244 254 258 258 260 262 263 262 262 258 262
12 10 7 1 360 1 352 342 334 324 314 303 300 293 279 273 271 270 258 257 263 266 270 273 270 269 260 256 257 254 254 248 259 258 259 258 256 256 258 257 259 257
8 3 357 351 350 346 334 328 327 317 316 302 293 286 284 278 277 273 281 279 270 266 269 272 275 267 266 261 263 269 260 255 257 256 258 259 255 254 255 257 258 258
2 360 345 342 338 335 334 334 331 326 317 316 308 306 299 294 291 285 285 286 284 278 276 279 284 286 283 281 281 283 280 273 270 271 268 268 267 264 264 264 260 258
354 356 343 340 336 340 336 330 325 309 305 323 309 307 301 296 291 282 272 265 270 274 271 283 286 286 288 288 286 284 280 280 280 279 276 274 277 272 271 271 267 265
349 352 342 339 337 333 334 325 322 320 313 311 302 293 283 283 281 287 287 285 281 280 282 276 280 284 282 282 281 279 272 274 276 280 280 277 280 282 274 267 270 266
349 347 342 338 332 326 323 314 313 314 316 316 307 298 294 289 289 290 296 292 290 284 278 270 277 284 282 285 287 281 269 266 276 279 279 283 283 283 288 279 271 271